Location: Sternwarte_Laufen
(47.9344°N, 12.9346°E)
Time: 07:46:57
(UTC+01:00)

BlueWalker 3 - Pass Details

Date: 04 February 2023
Orbit: 497 x 515 km, 53.2° (Epoch: 23 March)

Event Time Altitude Azimuth Distance (km) Brightness Sun altitude
Rises 19:14:17 0° 292° (WNW) 2,605 6.7 -20.6°
Reaches altitude 10° 19:16:33 10° 299° (WNW) 1,723 5.5 -21.0°
Enters shadow 19:20:10 42° 6° (N) 732 2.6 -21.6°
